ISS DEB (ROSA) (42813 NORAD) Tracking and Keplerian Element Data

This shows tracking and keplerian element data for the satellite.

Feedback or suggestion? Click here.




ElementValue
Catalog42813
NameISS DEB (ROSA)
Epoch Orbit3500
Epoch Day34.62290082
Epoch Year2018
RAAN299.9923
Inclination51.6149
Eccentricity0.0007135
Argument of Perigee247.0242
Mean Anonmoly113.0033
Mean Motion16.41949671
Decay Rate0.15228575
L11 42813U 98067MT 18034.62290082 .15228575 12406-4 85364-3 0 9994
L22 42813 51.6149 299.9923 0007135 247.0242 113.0033 16.41949671 35003



Live tracking and technical data element details for ISS DEB (ROSA) (NORAD 42813). ISS DEB (ROSA) can be tracked NOW for your location showing map with azimuth and elevation plus other details from your city location.







IsCatalogInMostPopularTable: catalog: 42813, numindb: 25872
Update: records affected: 1



GetName: 42813 ISS DEB (ROSA)

Hit Count: updated at: Thu, 10 Jul 2025 22:49:21 GMT